George, South Africa

12:54 AM SAST on May 26, 2017 (GMT +0200)
George

Weather History for FAGG - May, 2013

Change the Weather History Date:

Thursday, May 23, 2013

  Actual Average Record
Temperature  
Mean Temperature 63 °F -  
Max Temperature 71 °F 66 °F 87 °F (2017)
Min Temperature 55 °F 46 °F 32 °F (2003)
Degree Days  
Heating Degree Days 2    
Growing Degree Days 13 (Base 50)    
Moisture  
Dew Point 55 °F    
Average Humidity 77    
Maximum Humidity 94    
Minimum Humidity 53    
Precipitation  
Precipitation 0.00 in - - ()
Sea Level Pressure  
Sea Level Pressure 30.06 in    
Wind  
Wind Speed 7 mph ()    
Max Wind Speed 15 mph    
Max Gust Speed -    
Visibility 7.2 miles    
Events      
Averages and records for this station are not official NWS values.
T = Trace of Precipitation, MM = Missing Value Source: Averaged Metar Reports

Daily Weather History Graph

Daily Weather History Graph

Search for Another Location

Airport or City:

Trip Planner

Search our weather history database for the weather conditions in past years. The results will help you decide how hot, cold, wet, or windy it might be!

Date:

Astronomy

May. 23, 2013 Rise Set
Actual Time 7:21 AM SAST 5:32 PM SAST
Civil Twilight 6:54 AM SAST 5:59 PM SAST
Nautical Twilight 6:23 AM SAST 6:30 PM SAST
Astronomical Twilight 5:53 AM SAST 7:00 PM SAST
Moon 4:14 PM SAST (5/23) 5:09 AM SAST (5/23)
Length of Visible Light 11h 05m
Length of Day
10h 11m
Waxing Gibbous, 95% of the Moon is Illuminated
May 23
Waxing Gibbous
May 25
Full
May 31
Last Quarter
Jun 8
New
Jun 16
First Quarter

Hourly Weather History & Observations

Time (SAST) Temp. Dew Point Humidity Pressure Visibility Wind Dir Wind Speed Gust Speed Precip Events Conditions
12:00 AM 60.8 °F 57.2 °F 88% 29.98 in - West 12.7 mph - N/A   Clear
1:00 AM 60.8 °F 57.2 °F 88% 29.98 in 6.2 mi West 11.5 mph - N/A   Mostly Cloudy
2:00 AM 62 °F 58 °F 83% 30.00 in 6 mi WNW 9.2 mph - -  
2:00 AM 62.6 °F 57.2 °F 82% 30.01 in 6.2 mi WNW 9.2 mph - N/A   Overcast
3:00 AM 62.6 °F 57.2 °F 82% 30.01 in 6.2 mi WNW 6.9 mph - N/A   Overcast
4:00 AM 60.8 °F 57.2 °F 88% 30.01 in 6.2 mi NNW 4.6 mph - N/A   Overcast
5:00 AM 62 °F 58 °F 81% 30.02 in 12 mi NNW 3.5 mph - -   Mostly Cloudy
5:00 AM 62.6 °F 57.2 °F 82% 30.01 in 6.2 mi NNW 3.5 mph - N/A   Mostly Cloudy
6:00 AM 60.8 °F 57.2 °F 88% 30.01 in 6.2 mi WNW 3.5 mph - N/A   Mostly Cloudy
7:00 AM 60.8 °F 57.2 °F 88% 30.04 in 6.2 mi WNW 6.9 mph - N/A   Mostly Cloudy
8:00 AM 61 °F 57 °F 83% 30.07 in 12 mi NW 3.5 mph - -   Mostly Cloudy
8:00 AM 60.8 °F 57.2 °F 88% 30.06 in 6.2 mi NW 3.5 mph - N/A   Mostly Cloudy
9:00 AM 62.6 °F 55.4 °F 77% 30.06 in 6.2 mi NW 3.5 mph - N/A   Mostly Cloudy
10:00 AM 66.2 °F 55.4 °F 68% 30.06 in 6.2 mi West 10.4 mph - N/A   Scattered Clouds
11:00 AM 66.2 °F 51.8 °F 60% 30.06 in 6.2 mi West 10.4 mph - N/A   Partly Cloudy
12:00 PM 69.8 °F 51.8 °F 53% 30.06 in 6.2 mi West 12.7 mph - N/A   Partly Cloudy
1:00 PM 69.8 °F 51.8 °F 53% 30.04 in 6.2 mi SW 10.4 mph - N/A   Partly Cloudy
2:00 PM 68 °F 55 °F 53% 30.04 in 12 mi SSW 12.7 mph - -   Scattered Clouds
2:00 PM 68.0 °F 55.4 °F 64% 30.04 in 6.2 mi SSW 12.7 mph - N/A   Partly Cloudy
3:00 PM 66.2 °F 53.6 °F 64% 30.04 in 6.2 mi SSW 15.0 mph - N/A   Partly Cloudy
4:00 PM 64.4 °F 55.4 °F 73% 30.06 in 6.2 mi SW 10.4 mph - N/A   Partly Cloudy
5:00 PM 62 °F 54 °F 69% 30.09 in 12 mi 2.3 mph - -   Mostly Cloudy
5:00 PM 62.6 °F 55.4 °F 77% 30.06 in 6.2 mi Variable 2.3 mph - N/A   Mostly Cloudy
6:00 PM 60.8 °F 55.4 °F 82% 30.09 in 6.2 mi North 3.5 mph - N/A   Mostly Cloudy
7:00 PM 60.8 °F 53.6 °F 77% 30.09 in 6.2 mi Variable 1.2 mph - N/A   Scattered Clouds
8:00 PM 58 °F 53 °F 78% 30.15 in 12 mi West 4.6 mph - -   Scattered Clouds
8:00 PM 57.2 °F 53.6 °F 88% 30.15 in 6.2 mi NW 3.5 mph - N/A   Partly Cloudy
9:00 PM 57.2 °F 51.8 °F 82% 30.15 in 6.2 mi NW 2.3 mph - N/A   Partly Cloudy
10:00 PM 55.4 °F 53.6 °F 94% 30.15 in 6.2 mi North 3.5 mph - N/A   Mostly Cloudy
11:00 PM 57.2 °F 53.6 °F 88% 30.15 in 6.2 mi NNE 2.3 mph - N/A   Partly Cloudy